Simultaneous Nadir Overpasses (SNOs) Predictions

Prediction of SNOs between GOES-17 and NOAA-19 Satellite Orbit:

Table of predicted SNOs for the next 14.0 days since TLE Epoch: 1/28/2023
Index Date Time (GOES-17) GOES-17 Lat,Lon NOAA-19 Lat,Lon Distance(km) Time Diff (sec)
1 01/30/2023 16:12:12 0.01,-115.71 0.71,-118.64 334.06 80
2 01/31/2023 16:00:12 0.01,-114.55 0.26,-115.67 127.57 80
3 02/01/2023 15:50:50 0.02,-113.39 -0.12,-112.70 78.70 80
4 02/02/2023 15:38:50 0.02,-112.23 -0.56,-109.73 285.12 80
5 02/03/2023 15:26:48 0.02,-111.07 -0.95,-106.76 491.59 80
6 02/06/2023 03:44:17 -0.03,-108.11 -0.78,-111.44 379.27 80
7 02/07/2023 03:32:16 -0.03,-106.95 -0.39,-108.46 172.66 80
8 02/08/2023 03:22:55 -0.04,-105.79 0.06,-105.50 33.88 80
9 02/09/2023 03:10:54 -0.04,-104.63 0.45,-102.52 240.44 80
10 02/10/2023 02:58:52 -0.04,-103.47 0.84, -99.55 447.11 80
